GFSSE_sfc_thetae_024.txt.gz
Theta_e
320 325 331 337 340 343 344 346 347 347 347 347 347 347 347 347 347 347 347 348 347 347 347 347 347 346 346 345 345 345 345 346 348 350 352 352 351 352 353 354 352 349 353
318 322 329 334 337 339 340 341 343 344 344 345 345 345 345 346 347 347 347 347 346 346 347 348 348 346 346 345 344 344 344 347 348 347 349 348 348 350 351 354 351 350 352
316 320 325 328 330 333 335 337 339 340 340 340 341 341 342 342 343 344 343 343 344 346 346 346 347 346 346 345 345 345 344 346 347 345 345 349 350 351 350 353 352 351 352
313 318 321 324 325 328 330 331 331 331 332 333 335 337 336 337 338 339 338 338 339 342 343 344 346 346 346 346 345 344 346 345 345 343 340 346 347 351 349 352 353 351 352
312 316 318 320 322 323 324 325 325 324 325 326 327 327 328 332 332 332 333 334 336 338 340 341 342 342 343 343 344 344 345 346 344 342 335 345 348 349 349 351 353 352 350
309 312 315 317 318 319 320 321 321 320 320 320 320 320 323 324 322 322 323 325 327 329 331 334 337 337 337 339 341 341 342 344 343 342 341 337 346 350 349 351 351 350 347
304 308 311 313 314 316 316 317 317 316 316 316 315 315 317 317 316 316 317 318 320 322 323 325 327 329 332 335 336 338 340 341 340 338 340 342 338 348 349 350 351 351 351
300 302 305 307 309 311 312 313 312 313 313 312 312 311 311 312 312 311 312 314 315 315 316 318 319 321 326 329 333 333 332 332 335 337 338 340 341 343 345 349 351 351 352
300 300 301 302 302 306 307 307 308 309 308 308 307 306 306 307 307 307 308 310 312 312 313 313 314 317 319 318 322 323 322 326 331 335 336 338 339 342 344 345 350 350 351
299 299 299 300 301 301 302 303 304 304 304 304 304 302 301 302 303 302 303 305 307 309 310 311 312 314 312 311 311 312 313 319 333 334 335 336 338 340 342 343 347 349 350
297 298 299 299 300 300 300 298 300 300 300 300 300 300 301 301 301 301 300 301 304 305 307 308 309 310 308 307 307 308 309 320 321 328 333 333 337 339 341 341 345 347 348
296 296 298 298 298 299 296 299 300 299 299 299 299 299 299 299 299 298 299 298 300 300 303 305 306 306 305 305 305 307 306 308 310 319 325 330 333 337 339 341 343 345 347
297 296 296 297 298 298 298 299 300 300 300 299 298 298 298 298 298 298 298 298 299 299 301 302 303 303 303 304 304 305 305 305 306 309 316 322 325 330 336 339 342 344 345
295 296 296 296 297 297 298 298 298 298 298 297 297 296 297 296 296 296 296 297 297 298 298 299 300 301 301 302 303 303 304 304 304 305 307 313 313 323 330 335 339 342 344
295 295 295 296 296 296 297 297 297 297 296 296 296 295 294 294 294 295 295 295 295 296 295 296 297 298 299 300 302 302 302 302 303 304 305 308 309 312 319 330 334 339 342
295 295 295 295 296 296 296 296 295 296 295 295 295 294 293 293 292 292 292 293 293 293 293 293 294 294 296 298 298 299 300 301 302 303 303 304 308 308 311 317 331 334 338
295 295 294 294 295 295 295 294 295 294 294 294 294 292 291 291 291 291 291 291 291 291 292 292 292 293 293 294 295 296 298 300 301 302 303 303 304 307 309 311 315 330 334
295 294 294 293 294 294 293 293 293 293 293 293 293 293 291 290 290 290 290 290 290 290 291 291 291 291 291 292 292 294 296 297 298 300 301 302 303 304 307 309 311 320 331
294 294 293 294 293 293 293 293 292 292 293 293 292 292 290 289 289 288 289 289 289 289 289 289 289 289 289 290 291 292 293 294 296 297 299 300 301 303 304 306 308 309 317
293 293 293 293 293 293 293 292 292 292 292 292 291 291 289 289 288 288 288 288 288 288 288 288 288 289 288 289 289 289 292 294 296 297 298 299 301 302 303 304 307 307 309
292 292 292 292 292 292 291 291 290 290 291 290 290 289 288 288 287 287 287 287 287 287 287 287 287 286 287 288 287 288 290 293 295 296 298 300 300 301 303 304 306 308 309
290 291 291 291 292 291 291 291 290 290 290 290 289 289 288 287 286 285 285 286 286 286 286 286 286 285 286 287 283 284 286 289 297 295 295 295 298 301 302 304 305 308 310
290 290 290 290 291 291 290 289 288 288 288 287 288 288 287 286 286 285 285 285 285 285 285 285 285 284 283 285 285 283 283 284 286 291 292 293 294 297 299 301 303 306 311
291 292 290 290 290 290 290 288 287 287 287 288 287 287 286 286 285 285 284 284 285 285 284 285 284 284 283 281 284 284 284 284 281 282 288 290 292 292 296 299 300 301 304
291 291 290 290 289 289 289 288 288 287 287 287 286 285 285 285 284 284 284 284 284 284 284 284 283 283 283 282 282 282 282 282 283 280 278 284 289 292 293 295 299 301 304
291 290 291 289 288 289 288 288 287 286 286 285 284 283 283 283 283 283 283 283 283 283 283 283 283 282 282 282 282 281 280 278 281 281 281 282 282 286 290 293 298 299 301

GFSSE_sfc_thetae_027.txt.gz
Theta_e
323 329 334 337 341 342 344 344 346 347 347 348 348 348 348 348 348 348 347 347 346 347 348 348 348 347 346 345 345 345 344 345 345 345 347 350 351 350 351 354 352 348 353
323 327 330 332 335 338 340 343 343 343 344 344 344 344 343 344 344 345 344 344 345 346 346 346 347 347 346 345 344 345 345 345 346 346 344 345 349 351 349 352 353 349 352
320 324 326 328 331 333 335 337 336 336 337 339 340 340 340 340 341 341 340 340 341 343 345 345 346 346 346 346 345 344 345 347 346 345 342 339 347 352 349 352 353 352 351
318 321 322 325 327 329 330 330 330 330 332 333 333 333 336 335 335 336 335 336 337 339 341 343 343 343 343 344 344 344 344 345 346 343 338 332 342 352 348 349 352 352 352
316 319 319 321 323 325 325 325 324 325 325 325 325 328 330 327 326 326 328 329 330 332 334 335 337 338 338 339 340 342 342 343 343 338 340 337 339 347 349 349 351 351 350
314 316 317 319 320 321 322 321 321 321 320 320 320 322 322 320 319 319 320 321 322 323 325 327 329 329 330 334 337 338 340 338 339 337 337 339 337 345 349 351 351 350 348
310 312 314 315 316 317 318 318 317 317 317 316 316 317 317 316 315 315 316 317 318 318 319 320 321 323 327 329 332 334 333 331 333 336 337 338 340 344 343 346 350 351 351
306 309 309 310 311 313 313 313 314 314 314 313 312 312 312 312 312 312 313 314 315 315 316 316 317 319 319 319 320 323 323 323 327 332 336 338 340 343 343 344 345 350 351
303 304 305 306 307 309 309 309 310 310 309 309 308 307 307 308 307 307 307 310 311 312 313 313 314 315 315 314 313 313 314 315 318 329 332 334 338 340 341 342 343 345 349
302 302 303 303 303 305 305 305 306 305 305 304 304 302 301 304 303 303 303 306 308 308 310 311 311 312 312 311 310 310 310 313 319 329 332 333 338 339 340 341 342 342 346
300 301 302 302 303 303 303 301 302 301 301 300 302 300 304 302 302 302 302 303 305 305 307 308 309 309 308 310 311 310 312 309 311 315 323 330 332 335 338 338 340 341 343
299 300 301 301 302 301 299 302 303 301 302 302 302 302 301 301 300 301 303 302 303 302 304 306 307 307 307 304 305 309 306 306 306 308 311 324 325 330 334 335 337 340 342
301 300 299 300 301 301 300 302 302 302 302 302 301 301 301 300 301 300 300 300 301 302 300 300 301 301 302 303 303 304 304 305 306 306 308 315 313 318 323 330 333 336 339
301 300 299 300 300 301 301 301 301 301 301 300 299 299 300 299 299 298 298 298 299 299 298 298 300 300 300 301 302 302 303 303 304 305 306 311 310 312 315 320 327 332 335
301 300 299 299 299 300 300 300 300 299 299 299 298 297 297 297 296 297 296 296 296 296 295 295 296 296 297 298 299 300 300 301 302 303 305 308 310 309 312 315 319 326 332
301 299 299 298 299 299 299 299 299 298 298 298 297 296 295 296 295 295 295 295 295 294 294 294 294 294 295 297 296 297 298 299 301 302 303 304 308 309 310 312 315 317 324
301 300 298 298 298 298 298 298 298 298 297 297 295 294 294 294 293 293 293 293 293 293 293 293 293 294 293 294 294 295 297 298 299 299 301 302 304 307 309 309 311 314 316
301 299 298 297 297 297 297 297 297 296 296 295 295 295 293 292 292 292 292 292 292 292 292 292 291 291 292 292 292 294 295 296 296 297 298 300 302 303 306 306 308 310 312
300 298 297 296 295 296 296 296 296 296 295 295 294 293 292 291 291 291 291 291 291 291 291 291 290 290 290 290 291 292 293 293 295 296 297 299 301 302 303 306 308 308 308
300 299 297 296 295 296 296 295 294 294 294 294 293 292 291 291 290 290 290 290 290 289 289 290 289 289 289 289 289 289 291 293 294 295 296 298 301 302 303 304 304 305 308
300 298 296 295 295 295 294 293 293 292 293 292 293 291 290 290 289 289 289 289 289 288 288 288 288 287 288 289 287 288 289 292 294 297 298 300 299 298 302 303 304 304 306
297 296 295 295 295 294 295 295 294 293 294 293 292 291 290 289 288 288 287 287 288 287 287 288 288 286 287 288 284 284 285 288 295 291 292 293 296 297 296 300 301 301 304
296 295 295 295 295 294 295 294 292 292 290 289 290 290 290 289 288 287 287 287 286 287 286 287 287 286 284 286 286 283 282 282 283 290 290 291 293 294 293 294 296 298 299
296 297 295 295 294 294 294 292 290 289 288 290 292 291 289 288 287 287 287 286 286 286 286 286 286 285 285 283 285 286 285 284 280 279 287 289 290 290 292 292 294 295 297
297 296 295 294 294 294 294 291 290 289 291 292 289 288 287 288 287 286 286 285 285 286 286 285 285 285 285 283 283 283 284 284 283 281 278 282 286 288 290 291 291 292 295
297 296 294 293 292 293 292 291 291 290 290 289 288 287 287 287 286 286 285 285 285 284 284 285 284 284 283 283 283 283 282 280 280 281 280 281 281 283 286 286 286 288 289

GFSSE_sfc_thetae_033.txt.gz
Theta_e
322 328 338 342 344 346 347 346 347 347 347 346 346 347 347 347 346 345 344 345 346 348 348 349 349 349 348 348 346 346 345 346 346 345 344 342 341 348 350 351 350 349 352
323 328 335 336 340 343 343 342 342 344 345 345 345 345 345 344 343 343 342 343 344 346 347 346 345 344 344 344 345 346 345 345 344 344 342 341 341 342 351 351 349 349 350
322 325 329 335 336 337 336 338 339 340 340 340 341 341 340 339 337 336 336 336 337 339 339 339 339 338 339 341 342 343 344 343 342 341 341 335 330 349 351 350 350 352 351
320 322 324 333 334 335 335 335 336 335 335 336 336 335 333 333 333 332 331 330 331 333 334 334 333 333 333 334 336 339 339 338 337 337 335 334 332 346 349 350 351 351 351
316 318 323 331 331 330 330 331 331 331 330 333 331 329 327 326 326 325 324 323 324 325 325 325 325 328 328 328 331 334 334 333 332 329 329 331 333 339 347 350 350 349 347
313 316 323 327 328 327 327 326 326 325 325 327 325 323 322 321 321 320 320 320 320 321 321 321 321 321 320 320 320 322 325 324 325 320 325 329 331 343 344 345 347 346 346
310 313 317 324 325 324 323 323 322 322 321 321 321 320 318 318 318 318 318 318 318 319 319 319 319 318 318 317 317 317 316 315 310 311 317 324 328 340 341 343 344 345 347
308 310 313 320 322 321 321 320 319 319 318 317 317 316 315 315 314 315 315 315 316 316 317 317 316 316 315 315 314 313 313 315 309 307 312 323 334 341 342 342 342 342 343
306 306 306 309 314 317 318 317 317 315 314 314 314 312 311 311 310 310 311 312 314 314 314 314 314 314 314 313 313 312 312 311 301 304 307 317 327 334 338 340 340 340 340
301 302 302 303 305 304 306 314 313 312 310 309 309 308 307 307 307 306 306 309 311 311 311 311 311 310 309 309 310 310 309 307 299 300 302 306 317 323 329 333 336 337 337
297 298 299 300 301 300 301 306 308 308 307 306 305 305 303 296 298 299 305 306 307 307 307 308 308 306 304 304 306 307 306 300 299 299 300 312 315 317 319 321 323 328 332
293 295 297 296 298 299 301 299 297 300 298 297 297 296 296 295 297 300 302 303 302 301 303 304 304 301 298 295 295 299 297 297 298 298 299 308 311 314 316 317 318 319 321
293 294 296 296 296 297 296 296 296 295 295 295 294 295 295 295 294 293 292 292 291 295 291 293 293 293 292 293 293 293 294 294 294 296 299 306 309 312 314 315 317 318 319
293 294 294 295 295 294 294 296 295 295 294 293 293 294 293 292 291 290 290 290 289 290 289 289 290 291 291 292 292 292 292 292 293 294 296 303 306 310 313 315 316 317 318
294 294 294 294 294 294 294 294 294 294 293 293 292 292 292 290 289 290 289 289 288 288 288 288 289 289 289 291 291 291 291 291 291 293 294 300 302 305 309 312 314 315 317
296 294 294 294 295 295 293 293 293 292 292 292 290 290 291 290 289 289 288 288 287 287 287 287 288 287 288 289 290 290 290 290 291 292 292 293 300 302 304 308 311 313 314
297 295 294 294 294 295 293 292 293 292 292 290 290 290 290 290 288 288 288 287 286 287 287 287 287 287 286 288 287 289 289 290 290 290 291 291 293 298 301 305 307 310 311
297 294 294 296 294 294 293 292 293 291 290 290 289 289 289 289 288 287 287 287 287 286 286 286 285 285 285 286 286 287 287 288 289 289 290 290 291 293 298 303 305 306 307
297 295 293 294 293 293 291 291 291 290 289 289 288 287 288 288 288 287 286 286 286 286 285 286 284 284 284 284 285 286 286 286 287 289 289 290 292 293 294 299 304 305 306
298 295 294 293 293 292 291 290 289 288 288 288 287 288 288 287 287 286 285 285 285 284 284 284 284 284 284 283 285 285 285 285 285 285 287 290 291 293 294 293 295 298 302
297 293 292 291 291 292 291 289 288 288 287 286 286 287 287 287 286 285 284 284 284 284 284 284 283 283 282 283 281 282 282 284 285 284 286 286 287 289 290 292 291 291 292
295 293 292 291 291 292 292 291 288 287 287 286 287 286 286 286 286 285 284 283 283 282 282 282 282 281 282 282 280 279 278 281 284 284 283 285 285 287 289 289 289 290 290
294 292 292 291 291 292 291 289 287 287 285 284 284 284 285 285 285 284 283 283 282 282 281 281 281 281 280 280 281 279 277 276 278 282 283 283 283 283 285 287 289 288 289
294 293 292 292 290 291 290 289 288 286 286 287 287 285 284 285 284 284 283 282 281 281 281 281 282 281 280 279 280 282 280 279 277 276 280 281 284 283 283 285 286 287 288
294 292 292 291 290 290 290 290 289 287 287 283 283 283 284 283 283 283 283 282 281 281 280 281 281 280 280 279 279 280 279 279 279 277 275 277 281 283 283 284 284 285 285
291 292 290 290 290 290 289 289 288 287 284 283 284 284 283 283 282 282 282 281 281 280 280 280 280 280 279 279 280 280 279 278 278 277 276 277 277 279 281 282 282 283 284

GFSSE_sfc_thetae_036.txt.gz
Theta_e
323 329 343 345 347 348 348 347 348 347 347 347 346 346 347 345 344 344 344 345 347 348 348 347 346 345 345 346 346 346 345 344 344 343 342 342 343 342 350 350 348 347 350
324 329 339 343 346 346 345 345 346 346 346 346 346 345 344 343 342 342 342 342 343 344 344 344 343 342 340 342 343 343 344 342 341 340 340 339 339 343 344 350 348 348 350
324 329 332 338 341 342 343 343 342 342 341 340 342 342 340 339 338 336 335 336 338 339 339 337 336 336 336 337 339 340 338 339 338 337 337 332 331 345 350 349 349 351 350
322 324 328 337 337 337 337 338 338 337 337 337 338 336 334 335 334 333 331 330 331 332 331 330 331 333 332 332 334 335 334 334 332 331 327 331 332 344 349 349 349 349 348
318 321 326 335 335 335 335 336 336 334 335 335 333 332 331 329 328 326 325 324 324 325 325 324 325 323 323 323 323 326 326 324 323 320 322 326 329 340 344 345 344 345 345
315 318 327 332 332 332 332 332 331 330 332 330 328 326 325 324 323 322 321 321 322 322 322 322 321 320 319 318 319 318 317 317 315 308 310 320 325 337 341 342 345 345 344
312 315 322 331 329 329 329 328 327 327 327 325 323 322 321 320 320 320 320 319 320 320 320 319 318 317 317 316 316 316 317 315 308 306 309 319 326 342 340 342 342 343 343
310 312 317 326 327 326 325 325 324 323 323 322 320 319 318 318 318 318 317 318 318 317 317 317 316 316 316 316 315 314 313 312 302 302 305 315 322 336 341 341 340 340 340
308 309 310 314 319 324 324 323 321 320 320 319 318 317 315 314 314 314 314 315 315 315 315 315 314 313 313 313 312 311 310 309 298 300 302 306 320 326 331 334 336 337 338
304 305 305 306 309 309 312 320 319 317 316 316 314 313 311 310 310 310 310 312 313 313 313 312 310 309 308 309 309 308 306 304 297 298 299 306 316 320 323 322 324 328 331
302 302 302 303 303 303 305 310 315 314 313 312 310 309 304 298 298 301 307 308 308 308 309 308 306 304 302 303 303 303 301 296 296 296 298 308 313 317 319 319 319 320 321
298 298 300 300 300 300 304 303 300 302 299 298 297 297 295 294 296 300 303 303 303 302 303 304 302 300 296 292 292 296 293 293 293 294 296 306 310 314 316 317 317 318 319
297 297 299 298 298 297 299 297 295 296 294 295 294 294 294 295 294 292 291 291 290 293 290 292 291 291 290 291 291 291 291 291 290 292 295 303 306 310 314 316 316 317 318
292 295 296 296 297 296 294 296 294 294 293 292 293 294 292 291 290 290 289 289 288 288 287 288 288 289 289 290 290 290 289 289 289 291 293 299 303 307 310 313 315 316 317
292 294 294 295 296 297 293 294 294 293 294 292 292 293 292 290 289 289 288 288 287 287 287 287 287 287 288 289 289 289 288 288 289 290 291 296 299 303 305 308 311 314 316
294 293 294 295 295 295 293 294 294 293 293 291 290 291 291 290 288 288 287 287 286 286 286 287 286 286 286 287 288 288 288 288 289 289 289 290 297 300 303 306 309 311 312
295 295 293 294 294 294 293 294 293 293 293 291 290 290 290 290 288 287 287 286 286 286 286 286 286 286 285 287 286 287 288 288 288 288 289 289 290 296 300 304 306 308 309
296 294 294 295 294 294 294 293 293 292 291 291 290 289 289 289 288 287 286 286 285 285 285 285 284 284 284 284 284 285 286 286 287 287 288 288 289 291 296 301 305 305 307
297 295 294 294 293 294 293 292 292 291 291 290 288 288 288 288 288 286 286 285 285 285 284 285 283 283 282 283 284 284 285 284 285 287 287 288 289 290 291 298 301 303 304
297 295 295 294 293 293 292 291 290 289 288 288 288 287 287 287 287 285 285 285 285 284 283 283 282 283 282 282 284 284 283 284 284 284 285 288 288 289 291 291 292 292 298
296 294 293 292 292 293 291 290 290 290 288 286 286 287 286 286 286 285 284 284 284 283 283 282 282 281 281 282 281 281 282 283 284 283 283 284 285 288 290 288 288 288 290
296 295 293 292 292 293 293 293 290 290 286 288 287 286 286 286 285 284 283 283 282 282 282 282 282 281 281 281 279 279 278 280 283 283 283 283 283 285 285 287 288 288 287
295 294 293 292 291 293 293 291 286 286 284 284 284 285 285 286 285 284 283 282 282 282 281 280 281 281 280 280 280 279 276 276 278 281 282 282 282 282 283 284 285 286 286
296 294 293 292 291 292 291 290 288 288 287 287 287 285 283 285 284 284 283 282 281 281 280 281 282 281 280 279 280 282 279 279 277 276 280 280 282 282 282 283 284 285 286
295 293 292 292 291 292 290 290 289 288 287 284 283 283 284 283 283 283 282 281 280 280 280 281 280 280 280 279 279 279 279 278 278 277 275 278 280 281 282 283 283 283 284
290 291 291 290 289 290 289 289 289 288 283 283 283 284 284 283 283 282 282 281 280 280 279 280 280 280 279 279 280 279 279 277 277 276 275 276 276 279 281 282 282 282 283